TimeEST,TemperatureF,Dew PointF,Humidity,Sea Level PressureIn,VisibilityMPH,Wind Direction,Wind SpeedMPH,Gust SpeedMPH,PrecipitationIn,Events,Conditions,WindDirDegrees,DateUTC
12:15 AM,60.8,54.1,79,30.06,10.0,South,8.1,-,N/A,,Clear,170,2013-01-30 05:15:00
12:35 AM,60.4,54.5,81,30.04,10.0,South,8.1,-,N/A,,Clear,170,2013-01-30 05:35:00
12:55 AM,60.4,54.9,82,30.05,10.0,SSW,10.4,-,N/A,,Clear,200,2013-01-30 05:55:00
1:15 AM,61.0,55.0,81,30.03,10.0,South,11.5,-,N/A,,Clear,190,2013-01-30 06:15:00
1:35 AM,60.8,55.4,82,30.03,10.0,South,10.4,-,N/A,,Clear,190,2013-01-30 06:35:00
1:55 AM,61.2,55.8,82,30.03,10.0,SSW,12.7,-,N/A,,Clear,200,2013-01-30 06:55:00
2:15 AM,61.3,56.3,83,30.02,10.0,SSW,16.1,-,N/A,,Clear,200,2013-01-30 07:15:00
2:55 AM,61.2,57.4,87,30.00,10.0,South,10.4,-,N/A,,Scattered Clouds,190,2013-01-30 07:55:00
3:15 AM,61.7,57.7,87,30.00,10.0,SSW,16.1,20.7,N/A,,Overcast,200,2013-01-30 08:15:00
3:35 AM,61.7,58.1,88,29.99,10.0,South,13.8,18.4,N/A,,Overcast,190,2013-01-30 08:35:00
3:55 AM,62.4,58.6,87,29.99,10.0,SSW,12.7,18.4,N/A,,Overcast,200,2013-01-30 08:55:00
4:15 AM,62.2,58.6,88,29.98,10.0,South,16.1,20.7,N/A,,Overcast,190,2013-01-30 09:15:00
4:35 AM,62.8,59.0,87,29.97,10.0,SSW,15.0,20.7,N/A,,Overcast,200,2013-01-30 09:35:00
4:55 AM,62.8,59.0,87,29.97,10.0,South,13.8,21.9,N/A,,Overcast,190,2013-01-30 09:55:00
5:15 AM,63.1,59.2,87,29.97,10.0,SSW,13.8,19.6,N/A,,Overcast,200,2013-01-30 10:15:00
5:35 AM,63.5,59.2,86,29.96,10.0,SSW,13.8,20.7,N/A,,Overcast,200,2013-01-30 10:35:00
5:55 AM,63.5,59.2,86,29.95,10.0,South,17.3,-,N/A,,Overcast,190,2013-01-30 10:55:00
6:15 AM,63.7,59.4,86,29.94,10.0,South,18.4,24.2,N/A,,Overcast,190,2013-01-30 11:15:00
6:35 AM,64.4,59.4,84,29.94,10.0,South,18.4,25.3,N/A,,Overcast,190,2013-01-30 11:35:00
6:55 AM,64.4,59.2,83,29.94,10.0,SSW,15.0,23.0,N/A,,Overcast,200,2013-01-30 11:55:00
7:15 AM,64.4,59.4,84,29.94,10.0,South,17.3,25.3,N/A,,Overcast,190,2013-01-30 12:15:00
7:35 AM,64.4,59.5,84,29.94,10.0,South,16.1,23.0,N/A,,Overcast,190,2013-01-30 12:35:00
7:55 AM,64.4,59.5,84,29.93,10.0,South,13.8,21.9,N/A,,Overcast,190,2013-01-30 12:55:00
8:15 AM,64.8,59.5,83,29.93,10.0,South,16.1,21.9,N/A,,Overcast,190,2013-01-30 13:15:00
8:35 AM,64.9,59.9,84,29.92,10.0,South,11.5,20.7,N/A,,Overcast,190,2013-01-30 13:35:00
8:55 AM,65.1,59.7,83,29.91,10.0,South,11.5,17.3,N/A,,Overcast,180,2013-01-30 13:55:00
9:15 AM,65.5,59.5,81,29.91,10.0,South,10.4,23.0,N/A,,Overcast,190,2013-01-30 14:15:00
9:35 AM,65.8,59.9,81,29.90,10.0,South,12.7,21.9,N/A,,Overcast,190,2013-01-30 14:35:00
9:55 AM,66.6,59.5,78,29.89,10.0,South,16.1,25.3,N/A,,Overcast,190,2013-01-30 14:55:00
10:15 AM,67.1,59.5,77,29.88,10.0,South,18.4,27.6,N/A,,Overcast,190,2013-01-30 15:15:00
10:35 AM,67.1,59.4,76,29.89,10.0,South,16.1,23.0,N/A,,Overcast,190,2013-01-30 15:35:00
10:55 AM,67.5,59.4,75,29.88,10.0,SSW,16.1,28.8,N/A,,Overcast,200,2013-01-30 15:55:00
11:15 AM,68.2,59.7,74,29.87,10.0,SSW,18.4,31.1,N/A,,Overcast,200,2013-01-30 16:15:00
11:35 AM,68.0,59.9,75,29.86,10.0,SSW,18.4,27.6,N/A,,Overcast,200,2013-01-30 16:35:00
11:55 AM,68.0,59.9,75,29.84,10.0,South,13.8,20.7,N/A,,Overcast,190,2013-01-30 16:55:00
12:15 PM,68.4,59.9,74,29.82,10.0,South,15.0,26.5,N/A,,Overcast,190,2013-01-30 17:15:00
12:35 PM,68.4,60.1,75,29.80,10.0,South,15.0,21.9,N/A,,Overcast,190,2013-01-30 17:35:00
12:55 PM,68.4,60.1,75,29.78,10.0,South,15.0,29.9,N/A,,Overcast,190,2013-01-30 17:55:00
1:15 PM,68.4,60.1,75,29.77,10.0,South,15.0,26.5,N/A,,Overcast,190,2013-01-30 18:15:00
1:35 PM,68.2,60.3,76,29.77,7.0,South,19.6,32.2,N/A,,Overcast,190,2013-01-30 18:35:00
1:55 PM,68.0,60.8,78,29.75,10.0,South,18.4,31.1,N/A,,Overcast,190,2013-01-30 18:55:00
2:15 PM,68.2,60.8,77,29.74,10.0,South,13.8,26.5,N/A,,Overcast,190,2013-01-30 19:15:00
2:35 PM,68.2,60.4,76,29.72,10.0,South,17.3,25.3,N/A,,Overcast,180,2013-01-30 19:35:00
2:55 PM,68.4,60.8,77,29.71,10.0,South,18.4,29.9,N/A,,Overcast,180,2013-01-30 19:55:00
3:15 PM,68.5,60.6,76,29.70,10.0,South,15.0,26.5,N/A,,Overcast,190,2013-01-30 20:15:00
3:35 PM,68.9,60.3,74,29.68,10.0,South,18.4,27.6,N/A,,Overcast,180,2013-01-30 20:35:00
3:55 PM,69.1,60.3,73,29.68,10.0,South,17.3,26.5,N/A,,Overcast,190,2013-01-30 20:55:00
4:15 PM,69.4,59.9,72,29.67,10.0,South,19.6,27.6,N/A,,Overcast,180,2013-01-30 21:15:00
4:35 PM,70.7,59.9,69,29.66,10.0,South,16.1,26.5,N/A,,Mostly Cloudy,180,2013-01-30 21:35:00
4:55 PM,70.7,59.4,67,29.65,10.0,South,20.7,28.8,N/A,,Mostly Cloudy,190,2013-01-30 21:55:00
5:15 PM,70.3,59.0,67,29.64,10.0,South,18.4,31.1,N/A,,Overcast,170,2013-01-30 22:15:00
5:35 PM,70.0,59.0,68,29.62,10.0,South,21.9,31.1,N/A,,Mostly Cloudy,170,2013-01-30 22:35:00
5:55 PM,69.8,58.6,68,29.62,10.0,South,18.4,27.6,N/A,,Mostly Cloudy,180,2013-01-30 22:55:00
6:15 PM,69.8,58.6,68,29.62,10.0,South,16.1,26.5,N/A,,Overcast,170,2013-01-30 23:15:00
6:35 PM,69.6,58.5,68,29.60,10.0,South,20.7,29.9,N/A,,Overcast,170,2013-01-30 23:35:00
6:55 PM,69.4,58.1,67,29.58,10.0,South,16.1,32.2,N/A,,Overcast,170,2013-01-30 23:55:00
7:15 PM,69.3,58.1,68,29.56,10.0,South,23.0,31.1,N/A,,Mostly Cloudy,170,2013-01-31 00:15:00
7:35 PM,69.1,57.7,67,29.56,10.0,South,19.6,27.6,N/A,,Overcast,170,2013-01-31 00:35:00
7:55 PM,69.3,57.7,67,29.53,10.0,South,18.4,33.4,N/A,,Mostly Cloudy,170,2013-01-31 00:55:00
8:15 PM,69.1,57.7,67,29.52,10.0,South,23.0,34.5,N/A,,Overcast,180,2013-01-31 01:15:00
8:35 PM,68.9,57.7,68,29.51,10.0,South,21.9,38.0,N/A,,Overcast,180,2013-01-31 01:35:00
8:55 PM,68.9,57.7,68,29.51,10.0,South,21.9,34.5,N/A,,Overcast,190,2013-01-31 01:55:00
9:15 PM,69.3,58.1,68,29.48,10.0,South,19.6,38.0,N/A,,Overcast,180,2013-01-31 02:15:00
9:35 PM,69.3,58.3,68,29.46,10.0,South,25.3,35.7,N/A,,Overcast,180,2013-01-31 02:35:00
9:55 PM,69.4,58.6,68,29.45,10.0,South,19.6,26.5,N/A,,Overcast,180,2013-01-31 02:55:00
10:15 PM,68.4,59.4,73,29.43,10.0,South,24.2,38.0,N/A,Rain,Light Rain,170,2013-01-31 03:15:00
10:35 PM,67.5,60.1,77,29.42,7.0,South,23.0,33.4,N/A,Rain,Light Rain,180,2013-01-31 03:35:00
10:55 PM,66.6,60.8,82,29.41,7.0,South,20.7,31.1,N/A,Rain,Light Rain,190,2013-01-31 03:55:00
11:15 PM,67.1,60.8,80,29.39,10.0,South,24.2,32.2,0.01,Rain,Light Rain,170,2013-01-31 04:15:00
11:35 PM,-9999,-9999,N/A,-9999,-9999.0,North,-9999.0,-,N/A,,Unknown,0,2013-01-31 04:35:00
11:55 PM,-9999,-9999,N/A,-9999,-9999.0,North,-9999.0,-,N/A,,Unknown,0,2013-01-31 04:55:00